Theta_e
339 338 341 347 349 350 350 350 351 349 348 347 347 346 346 346 345 347 347 347 346 347 347 347 346 346 346 344 343 342 342 342 340 340 339 339 339 338 339 339 339 339 339 339 339 339 339 338 338 337 338 339 341 341 340 340 340 340 340 340 339 339 340 341 342 342 341 339 341 341 341 342 341 341 341 341 340 339 339 339 338 334 333 336 339
339 339 342 345 349 349 349 350 350 349 348 347 346 346 346 345 344 344 347 347 346 348 347 346 346 345 346 344 342 341 341 341 339 337 338 339 339 339 339 339 338 338 337 337 337 337 337 337 338 338 339 340 341 340 340 340 339 339 339 338 338 339 339 341 341 341 341 341 341 341 340 340 340 341 341 340 340 339 340 339 338 332 331 338 339
341 340 343 346 349 349 348 349 350 349 348 348 347 347 345 343 343 343 345 347 348 347 346 346 345 344 344 344 343 341 340 340 339 338 338 338 338 337 338 339 337 337 337 337 338 338 338 338 339 339 340 340 340 341 339 339 338 337 337 338 338 338 339 340 341 341 340 340 340 340 339 341 339 340 340 341 340 340 340 338 337 338 335 338 339
340 341 343 346 348 349 349 349 350 349 348 347 347 346 345 344 343 342 343 348 346 346 345 345 344 343 343 343 342 339 339 338 339 337 338 337 338 338 337 338 339 338 338 337 336 336 336 337 338 338 339 339 340 339 339 337 336 336 336 337 338 338 338 340 340 340 340 339 338 336 333 330 335 339 340 340 340 339 339 338 338 338 338 338 339
342 343 343 345 346 348 349 350 349 348 348 347 347 346 345 344 343 341 341 342 346 344 345 344 343 341 341 341 341 338 338 339 339 337 337 337 337 337 338 338 337 336 336 336 337 337 338 337 337 338 339 339 338 338 338 337 337 336 336 336 337 337 338 340 340 339 338 338 336 332 326 328 330 337 339 340 340 338 339 338 337 338 338 338 338
343 343 343 344 344 346 349 350 349 348 348 347 347 346 345 344 343 341 341 341 341 343 343 344 343 341 341 341 340 338 339 340 338 337 337 338 337 337 338 338 337 337 336 336 336 336 336 336 337 338 338 338 338 338 338 338 337 336 335 335 336 337 338 339 338 338 337 335 333 326 326 327 330 334 339 340 339 338 338 338 338 338 338 339 339
343 343 343 343 343 345 348 349 349 349 348 347 346 345 345 344 342 341 340 340 339 339 341 343 344 341 340 339 340 339 340 338 338 338 337 337 337 337 337 337 337 336 336 336 337 336 336 336 336 337 338 338 338 338 338 337 338 338 336 335 336 337 338 338 338 337 335 329 325 324 325 327 328 328 339 340 340 339 338 338 338 338 338 339 339
344 344 344 343 342 345 347 349 349 348 348 346 345 345 344 344 342 341 340 340 340 339 342 344 343 340 339 340 340 339 338 338 337 336 337 337 337 337 337 337 336 336 336 336 336 336 336 336 336 336 337 337 338 338 337 337 338 338 338 338 339 338 339 338 337 336 334 325 323 326 326 327 329 328 338 339 339 340 338 339 339 338 338 338 337
343 344 345 344 343 345 346 347 348 348 348 346 345 344 344 343 343 341 340 340 340 341 343 345 344 341 341 340 337 338 338 340 339 338 338 336 337 337 336 336 335 336 336 335 336 336 335 335 336 336 337 337 337 337 336 337 337 338 339 339 339 338 338 337 335 333 329 324 324 326 328 327 328 329 336 338 339 339 338 338 339 338 337 338 337
343 344 344 344 344 343 345 346 348 348 348 346 345 344 344 343 342 342 341 340 341 343 345 345 343 342 342 339 337 338 338 339 337 337 338 336 336 336 336 336 336 335 335 335 336 336 335 335 335 336 337 337 336 335 336 336 336 337 339 339 339 338 337 335 333 331 322 322 323 323 329 337 327 331 336 339 339 339 337 338 338 338 336 337 337
343 343 344 344 343 342 345 347 348 348 347 346 345 345 343 343 342 342 341 341 343 346 346 344 344 342 340 338 337 338 337 338 338 337 337 336 336 335 336 335 335 335 335 335 335 335 335 334 335 335 336 336 335 335 335 335 335 335 337 338 337 337 335 333 329 321 322 322 322 322 328 336 325 328 338 339 339 338 339 338 338 337 337 337 338
342 342 342 343 345 342 344 346 347 348 347 346 345 344 344 343 342 342 342 342 346 346 344 344 344 342 339 339 339 337 336 337 337 337 336 336 336 335 335 335 335 334 335 335 335 334 334 334 334 335 335 335 334 334 333 334 333 333 335 337 336 335 334 331 324 321 318 318 321 322 320 323 324 333 338 339 339 339 337 337 337 337 337 337 338
341 341 341 341 342 341 343 345 345 347 347 346 344 343 343 342 342 341 343 346 345 345 345 345 344 341 338 338 338 336 336 337 337 337 336 337 336 336 336 335 335 335 335 334 334 334 334 334 334 334 334 334 333 333 333 333 332 332 333 335 334 333 331 329 318 319 318 317 319 319 318 321 325 338 338 339 338 339 338 338 337 337 338 337 337
339 339 340 340 340 345 340 342 343 344 345 345 344 344 343 343 342 341 342 346 345 345 346 345 343 340 339 339 338 336 336 336 336 336 337 336 335 336 335 335 335 335 334 335 334 334 334 334 334 334 334 333 333 332 332 332 332 331 331 332 332 331 329 328 326 316 318 317 321 320 318 322 324 336 337 338 338 337 337 337 336 337 337 337 337
338 338 339 339 341 342 343 340 341 341 343 344 344 344 343 343 342 342 343 345 345 345 345 344 343 341 341 340 338 337 336 336 336 337 341 338 335 335 335 335 335 335 334 334 334 334 334 334 333 333 333 332 332 331 331 331 331 331 330 330 329 328 324 314 316 313 316 319 316 318 316 318 336 336 336 337 337 336 337 337 336 336 336 337 336
338 337 337 338 340 339 341 342 338 337 339 341 341 342 343 342 342 342 345 345 346 345 345 344 344 342 342 341 338 337 336 336 337 340 339 339 335 335 335 335 335 335 334 334 334 334 333 333 333 333 333 332 331 331 330 330 330 330 330 328 328 327 323 319 311 311 311 313 313 318 315 317 332 335 335 336 336 336 336 335 336 336 336 336 335
336 336 337 336 336 336 338 340 338 335 335 337 337 339 341 342 342 344 345 346 346 345 345 344 344 343 342 341 339 338 338 337 339 340 338 338 338 337 339 335 334 334 334 334 334 334 333 333 333 333 332 332 331 330 330 329 330 329 331 328 327 326 323 319 311 311 312 315 315 314 314 316 333 329 334 335 335 335 336 335 334 335 335 335 336
334 334 334 333 334 334 335 335 335 333 333 335 334 336 338 340 340 341 342 344 344 344 344 344 343 343 342 341 340 340 339 339 339 339 338 339 337 335 335 336 335 334 334 334 334 333 334 333 333 332 332 332 331 330 330 331 330 332 332 329 326 324 323 320 310 311 312 321 309 315 314 324 329 328 328 333 334 335 334 334 334 334 335 334 334
332 333 333 332 333 333 333 333 332 330 331 332 331 334 334 336 338 339 339 341 342 341 341 341 341 341 340 339 339 339 337 337 337 337 335 335 334 332 334 336 335 334 334 334 334 334 333 333 333 333 332 332 332 331 331 332 332 332 330 329 325 322 321 316 311 310 310 312 310 310 311 327 333 329 328 331 334 334 334 333 333 333 334 334 334
329 330 331 331 332 332 331 331 331 330 329 330 330 329 332 332 334 336 336 337 339 338 337 337 336 336 336 336 335 335 333 330 332 329 331 334 334 328 329 333 336 335 334 333 333 333 333 333 333 333 333 333 332 332 333 333 333 332 330 327 323 320 310 309 309 309 308 310 316 311 318 331 332 328 328 329 334 334 334 333 333 332 332 334 334
330 329 330 330 330 331 330 330 329 329 328 330 329 328 330 330 331 332 333 333 335 335 334 332 330 330 330 329 332 335 331 327 325 324 328 325 326 325 327 331 333 337 337 335 334 334 334 334 333 333 333 333 334 334 332 332 331 329 327 323 320 309 307 307 307 310 310 310 315 312 324 329 330 329 330 331 333 334 334 333 333 333 332 332 333
329 330 330 330 330 330 329 329 328 327 327 329 329 328 329 330 328 328 330 330 331 331 332 333 337 337 328 332 335 334 333 330 327 331 322 323 323 324 325 329 332 333 335 336 335 335 334 334 333 333 333 333 332 322 321 321 323 322 321 318 311 309 308 308 308 307 310 309 313 316 326 329 331 330 329 332 333 333 334 333 333 333 332 333 332
329 330 330 331 330 329 328 328 327 326 326 326 328 328 328 326 326 327 327 328 331 333 334 335 336 336 335 335 334 334 333 332 330 328 323 323 323 323 325 327 329 330 333 336 335 335 334 334 334 334 333 333 325 323 321 317 314 317 316 309 309 309 308 308 308 307 309 309 310 320 326 329 330 331 329 330 334 334 334 333 333 332 332 332 333
330 330 330 331 330 329 328 328 327 326 326 326 326 326 326 326 326 326 328 327 329 333 335 336 337 337 336 335 335 334 333 332 331 330 330 323 321 322 323 324 326 327 328 330 331 331 331 334 334 333 332 325 323 322 320 318 315 311 308 309 309 310 310 310 308 307 308 310 312 321 326 329 330 331 330 328 332 334 334 333 332 332 332 332 332
331 332 330 330 330 329 327 327 327 326 325 325 325 326 325 326 326 326 328 331 332 333 334 335 336 335 336 335 334 333 333 332 331 330 329 324 319 320 318 319 317 317 322 321 320 320 321 320 321 323 323 323 322 321 319 319 316 313 312 311 311 310 312 311 310 309 310 311 312 319 323 328 329 331 331 329 329 333 333 334 333 332 331 331 332
332 330 330 330 330 329 328 327 326 325 325 325 325 325 325 325 324 326 328 331 333 333 333 333 334 334 335 335 334 332 331 331 330 329 329 327 324 322 322 320 317 319 322 323 322 321 321 320 321 323 323 322 322 321 319 317 316 315 312 310 312 311 312 311 311 311 312 311 312 318 321 325 328 330 332 331 329 330 332 333 333 333 332 331 331
331 331 331 331 330 329 327 327 326 325 324 325 325 324 324 325 325 325 326 329 332 332 332 333 334 335 335 334 334 333 331 330 330 329 328 328 326 324 325 323 322 320 322 323 322 321 321 322 322 322 323 322 322 321 320 319 317 315 314 312 311 312 312 311 311 311 312 311 313 317 320 326 329 330 330 332 330 330 331 333 333 333 332 332 332
331 331 331 331 329 328 328 327 326 326 325 324 324 323 324 324 324 324 325 327 329 330 331 332 334 334 334 334 332 333 332 330 329 329 328 328 326 326 326 325 324 322 323 323 322 322 321 322 322 322 322 322 321 322 321 319 318 316 314 313 313 313 312 311 312 312 312 312 311 314 318 322 326 330 331 332 332 332 331 331 331 333 333 333 332
329 330 331 331 330 328 327 327 326 325 326 325 324 324 323 324 323 323 324 325 328 329 331 332 332 333 334 334 332 333 333 332 331 330 329 327 327 326 325 325 325 324 324 323 323 322 321 320 321 322 322 322 321 321 321 319 318 316 314 313 313 314 313 312 312 311 311 312 312 313 316 319 323 328 330 331 333 333 332 332 331 331 331 332 332
329 331 331 331 331 329 327 327 326 326 326 325 324 323 323 323 323 323 324 323 326 328 330 330 331 332 332 333 333 333 333 332 331 330 329 327 326 326 324 325 325 325 323 323 324 322 321 319 319 320 321 321 321 321 320 318 318 317 314 313 313 314 314 313 313 312 313 313 312 312 315 317 320 324 328 330 332 332 333 332 332 332 332 332 332
328 329 330 331 332 330 328 327 327 325 326 325 325 324 323 323 323 324 323 323 325 327 328 329 329 331 331 332 332 332 332 332 332 331 330 328 326 326 324 325 325 325 324 323 323 323 322 320 319 319 318 318 319 320 318 318 317 315 313 312 313 313 313 313 313 313 313 314 313 313 313 316 318 321 325 329 331 332 332 333 333 332 332 332 332
325 327 329 331 331 331 330 328 327 327 325 325 325 324 324 323 323 323 323 323 323 325 326 327 326 329 330 330 331 332 329 331 331 331 331 330 329 327 326 325 325 326 325 325 324 323 322 321 320 318 317 317 317 317 316 315 314 313 312 312 313 313 314 313 313 314 314 314 314 314 313 314 316 318 321 325 329 331 332 332 333 333 333 332 333
325 326 327 327 329 331 331 330 328 327 326 326 325 325 325 324 323 323 323 323 323 323 324 325 326 327 328 329 329 330 330 329 330 330 329 330 330 329 328 327 327 326 326 325 325 324 323 321 320 318 317 315 314 313 311 312 312 313 312 313 313 314 314 313 314 314 314 314 315 314 314 314 313 315 317 319 323 328 331 332 332 333 334 333 333
323 324 324 326 328 330 330 330 329 327 326 327 326 326 325 325 324 323 322 322 323 323 323 323 323 324 326 327 328 329 328 329 329 329 329 329 329 329 329 328 328 327 326 325 325 324 323 322 321 320 317 316 316 316 315 313 313 313 313 313 311 313 314 314 314 314 314 314 315 314 315 314 314 313 313 316 319 322 327 330 332 332 333 334 334
322 322 323 325 326 329 330 331 329 329 327 327 326 326 326 325 325 324 324 323 322 322 323 323 323 323 324 324 325 326 327 328 329 328 328 328 328 328 328 329 329 328 326 325 325 325 324 323 322 319 318 316 316 316 316 315 314 313 313 313 313 313 313 313 314 314 314 315 314 314 314 315 315 314 314 314 315 317 321 326 330 332 333 334 334
322 323 323 323 324 326 328 329 329 328 329 328 328 327 327 326 326 324 324 323 322 322 323 323 323 323 323 323 324 324 324 326 327 328 327 327 327 327 327 328 328 328 326 325 324 324 324 323 322 320 317 316 316 316 316 315 315 314 313 312 313 312 313 313 313 313 314 314 314 314 314 314 315 315 314 315 315 315 317 321 325 330 331 333 334
322 322 323 322 322 324 325 328 329 329 329 328 328 328 328 327 326 325 325 324 323 323 323 323 323 323 323 323 323 323 323 324 325 326 326 326 326 326 327 328 328 327 326 325 324 323 323 322 321 320 320 319 318 317 316 315 315 314 313 312 313 312 313 314 314 314 315 314 314 314 314 314 314 312 315 315 315 315 315 317 321 324 326 328 332
322 322 323 323 322 323 324 326 328 329 329 329 328 328 328 328 327 326 324 324 324 324 323 323 322 323 323 323 323 323 322 323 324 325 326 326 326 325 326 327 327 327 326 325 324 324 323 323 322 321 319 319 319 318 317 316 314 313 312 312 312 312 313 314 314 313 314 314 314 314 315 315 315 315 315 315 315 315 315 316 317 318 319 321 326
323 322 322 323 323 322 322 322 324 327 328 328 327 327 327 327 327 326 325 324 324 324 324 323 323 323 323 323 323 323 322 323 323 323 324 324 324 325 325 326 326 326 325 324 324 323 322 322 322 322 320 319 320 320 319 317 315 314 314 314 314 314 315 315 315 315 314 314 315 315 316 315 315 315 315 315 315 315 315 315 315 315 316 316 321
322 322 321 322 322 322 321 322 322 324 326 326 326 325 325 325 325 325 324 324 324 323 324 324 324 323 323 323 323 323 323 322 323 323 323 323 323 324 324 325 326 325 324 323 323 323 322 321 320 320 320 317 317 318 317 315 315 315 314 315 316 316 316 316 316 316 316 316 316 315 315 315 314 315 315 315 315 314 314 315 313 314 315 315 317
321 321 321 321 322 322 321 320 322 322 323 324 324 324 323 323 324 324 323 324 323 323 323 323 324 324 323 323 323 323 323 322 322 323 323 321 323 323 322 322 323 324 324 323 324 324 324 322 321 319 318 319 318 316 317 315 315 314 316 316 317 318 317 316 316 317 316 317 316 315 315 314 314 313 314 314 314 314 314 314 314 314 314 314 315
320 321 321 321 322 322 321 322 322 322 322 324 324 324 325 324 323 323 324 324 323 322 322 323 323 324 323 323 322 323 323 323 321 322 322 323 322 322 322 321 321 322 322 323 324 321 323 321 321 319 318 318 319 318 315 315 312 311 311 312 313 314 314 314 314 315 316 316 315 314 314 313 313 313 313 312 312 312 313 314 314 314 314 314 315
319 320 321 321 321 321 322 322 322 322 322 323 323 323 324 325 325 324 324 323 324 324 324 323 323 323 323 323 323 323 322 322 323 321 322 322 323 322 322 322 321 320 320 321 322 322 322 321 320 319 318 316 317 316 316 317 315 310 311 308 308 300 300 301 305 309 313 313 313 312 312 312 312 313 312 311 311 311 312 313 313 313 314 314 314
316 317 319 320 321 321 322 322 322 322 322 323 321 324 324 324 325 324 322 323 322 320 322 322 322 322 322 323 323 323 323 322 322 322 321 322 322 322 322 322 321 321 320 319 319 320 321 321 321 319 320 317 315 314 316 316 317 312 307 308 305 298 302 298 294 301 305 310 311 310 311 311 312 311 310 311 312 312 312 312 312 313 313 314 314
313 316 318 320 321 321 322 323 323 323 323 322 322 323 322 320 322 317 315 315 314 315 317 320 321 321 321 321 322 323 323 322 323 322 321 322 322 322 322 322 321 321 320 319 319 319 319 320 320 319 318 318 317 317 313 316 316 318 314 302 301 298 301 299 297 301 298 302 304 309 309 310 311 310 310 311 311 312 312 312 312 312 313 313 313
309 313 316 318 319 321 321 322 323 323 323 323 323 322 321 321 320 319 317 318 318 318 317 319 320 320 320 322 322 322 322 322 322 322 322 321 321 322 322 322 321 321 320 320 319 319 318 318 319 319 318 319 318 316 315 312 316 316 318 317 310 303 297 294 301 301 300 301 302 301 305 308 308 308 309 309 310 311 310 312 312 312 312 313 313
308 311 313 315 318 320 321 322 323 323 324 323 323 321 321 321 321 320 320 319 319 320 322 322 321 322 322 321 322 321 322 322 322 322 322 321 321 321 321 321 321 321 320 320 319 319 319 318 318 318 318 317 317 315 315 314 310 314 316 317 315 312 303 303 303 297 303 302 299 299 303 302 304 305 307 308 309 309 311 310 311 312 312 312 313
309 309 310 312 315 318 319 320 322 322 323 324 323 322 321 321 321 320 320 320 320 320 321 322 322 321 320 320 320 321 321 321 322 322 322 321 321 321 321 321 320 321 320 320 320 320 319 319 317 318 318 317 316 315 315 315 311 311 314 314 314 315 314 310 305 306 302 303 307 299 297 298 299 303 306 307 307 308 309 309 310 311 311 312 312
309 309 310 311 313 315 317 318 320 321 322 322 322 322 322 322 321 321 320 320 321 321 321 319 319 319 319 319 319 320 320 321 321 321 321 322 320 320 320 320 320 320 318 320 320 320 319 318 317 316 316 316 316 316 315 314 314 313 310 311 314 313 314 314 313 308 307 305 306 307 307 302 299 302 302 304 306 307 308 309 309 309 309 310 311
311 310 310 309 310 311 314 315 318 320 322 322 322 322 322 321 321 321 320 321 320 320 321 320 317 317 318 319 319 319 319 320 320 321 321 321 321 320 320 320 320 320 318 319 319 319 319 318 318 317 317 316 316 316 315 315 315 315 313 311 310 311 312 311 312 311 309 309 306 306 308 304 305 303 299 301 303 305 307 308 308 308 308 309 310
309 308 308 307 308 310 312 313 316 318 320 321 321 322 322 322 321 321 321 320 320 320 319 319 319 317 317 318 319 319 319 319 319 319 320 321 321 320 320 320 320 319 317 318 318 319 319 318 318 317 316 316 316 316 314 314 315 314 313 313 312 311 310 309 310 311 310 307 306 307 309 309 307 308 305 306 306 306 306 307 308 308 309 309 310
Wind_Speed
7 8 6 12 13 13 14 14 15 13 12 13 12 11 10 9 8 11 10 11 10 11 11 12 12 12 12 11 10 10 10 11 9 9 9 10 11 10 11 12 13 12 12 12 12 12 13 13 13 13 14 13 14 14 15 15 15 14 14 14 15 14 16 15 15 14 14 14 14 14 13 13 14 14 14 14 14 11 8 8 8 5 5 9 14
10 8 6 7 14 13 14 14 14 13 12 12 12 11 11 9 8 8 11 10 10 11 11 11 11 11 12 11 10 10 10 10 10 10 10 10 9 10 11 11 12 11 11 12 11 12 12 13 13 13 13 14 13 14 13 13 14 13 13 14 14 14 15 14 14 14 15 14 14 15 14 12 13 13 14 14 13 13 7 7 6 4 4 12 14
8 8 6 8 13 13 14 14 14 14 13 12 12 12 11 10 8 7 9 11 11 11 11 11 11 10 11 10 9 8 9 9 9 9 9 9 9 10 10 12 11 11 11 11 11 11 11 13 13 13 13 13 13 13 13 12 12 12 13 13 13 14 14 14 13 14 13 14 13 12 12 13 11 12 12 13 12 13 10 12 11 7 8 13 13
10 7 6 9 12 12 13 13 14 14 12 12 12 11 10 10 9 8 7 11 11 11 10 10 11 10 10 9 9 8 8 9 9 9 9 9 9 9 10 11 11 11 11 11 11 11 11 12 12 12 12 12 12 13 11 10 10 11 11 12 13 13 13 12 12 12 12 12 11 9 5 5 7 9 12 12 12 12 9 12 12 13 12 12 14
9 7 6 7 8 11 13 13 13 13 12 11 11 10 10 10 9 8 7 8 11 9 10 9 10 10 9 9 10 8 7 9 8 8 8 8 8 9 10 10 10 10 10 10 11 10 11 11 12 12 12 12 12 11 10 9 9 9 10 11 12 13 12 12 11 12 11 11 10 7 5 4 4 7 11 12 11 8 7 9 11 12 13 14 14
9 7 6 6 7 9 12 12 13 14 12 11 10 10 10 9 9 9 8 6 9 10 9 9 10 9 10 9 9 7 8 9 9 8 8 8 9 9 9 9 10 10 10 10 10 10 10 11 11 10 11 12 11 10 9 8 8 8 9 9 10 11 11 10 11 10 10 10 9 5 5 4 3 4 11 11 10 6 9 11 12 12 12 13 14
10 6 6 6 6 8 11 12 13 14 13 11 10 9 9 9 9 9 8 8 8 9 9 9 10 9 9 9 9 9 9 8 7 8 8 8 8 8 9 9 9 9 9 10 10 10 9 9 10 9 11 10 11 10 9 9 8 8 8 9 9 10 10 10 10 9 10 6 4 4 4 4 4 2 10 11 10 9 10 10 11 12 12 12 12
7 6 6 5 5 8 12 12 12 14 13 12 10 9 9 9 9 9 9 9 8 8 9 9 9 9 8 8 9 10 9 9 8 7 8 7 8 8 8 8 9 9 9 9 10 9 9 9 9 9 9 10 10 10 9 9 9 9 9 9 10 10 10 9 8 9 8 4 3 4 4 4 4 3 8 10 10 10 9 11 10 11 11 12 8
7 6 6 5 5 10 12 11 13 14 13 11 10 9 8 9 9 9 9 9 9 9 9 10 10 10 10 9 8 9 8 9 9 9 8 7 7 8 7 7 7 8 9 9 9 9 9 9 9 8 8 8 9 9 10 10 9 9 9 10 10 10 9 8 8 8 5 3 4 4 4 4 4 4 7 9 10 11 11 8 8 10 10 9 10
7 6 6 5 5 9 11 11 13 14 13 12 11 9 9 9 9 9 9 8 9 10 11 11 10 10 10 9 7 8 9 9 9 9 8 7 6 6 7 8 8 8 8 8 9 9 9 8 8 8 7 8 8 9 10 10 9 9 10 10 10 9 8 7 7 6 3 3 4 4 4 5 3 4 4 9 10 10 8 5 4 4 5 9 10
7 6 5 5 5 8 9 11 11 12 13 12 11 10 10 9 9 9 9 9 8 9 11 10 10 10 9 9 8 8 9 9 8 8 8 8 7 6 6 6 7 7 7 8 8 8 8 8 8 7 7 6 7 8 9 10 10 10 9 9 9 9 8 8 6 3 3 3 4 4 4 7 3 2 5 8 9 8 6 5 6 6 7 7 8
8 6 5 4 7 8 8 9 10 12 13 12 11 11 11 10 10 10 10 11 11 10 10 11 10 9 9 9 9 8 6 7 8 7 7 7 7 6 6 6 6 6 7 7 8 7 7 7 7 7 6 5 6 7 8 9 10 10 9 8 8 8 7 7 4 4 3 3 3 3 3 4 3 3 6 6 8 8 7 7 6 6 7 8 8
8 6 5 5 4 8 8 9 9 9 11 12 11 11 11 11 10 9 10 9 9 11 12 10 11 10 9 8 8 7 5 7 8 7 7 8 7 8 7 7 6 6 6 6 6 6 6 6 6 6 5 5 5 6 7 8 10 10 9 8 8 7 6 6 3 3 3 3 3 3 3 3 3 5 5 5 6 9 7 7 7 7 7 7 8
8 7 6 5 4 9 7 9 9 9 9 9 10 10 11 11 10 10 9 9 11 11 10 11 10 10 9 9 8 8 6 7 5 6 8 8 7 8 7 6 6 5 5 6 6 6 5 5 5 4 4 4 5 5 6 7 8 9 9 8 7 6 5 4 4 2 2 2 2 2 3 3 2 4 5 4 5 6 6 7 7 6 7 7 7
8 8 7 6 5 6 8 8 8 8 9 9 9 9 11 11 10 10 9 10 10 11 11 11 11 11 10 10 9 9 8 6 5 5 4 5 7 7 7 6 6 6 6 5 5 5 5 4 4 3 3 3 3 4 5 6 7 9 8 7 7 5 4 2 2 2 2 1 1 2 3 3 4 5 4 4 4 5 5 5 5 6 5 6 6
8 8 6 6 6 5 5 6 8 7 9 9 9 9 10 10 10 9 10 10 10 11 11 12 12 12 11 10 10 10 9 7 7 4 1 1 7 7 6 7 6 6 6 6 6 5 5 4 3 3 3 2 2 3 3 4 5 6 8 6 5 5 4 3 1 1 1 0 1 1 2 2 5 4 4 4 4 3 3 4 4 4 4 4 4
6 5 8 7 6 6 6 5 6 8 8 9 8 9 8 9 9 7 8 8 9 9 11 11 10 11 11 11 10 9 9 9 7 4 2 1 4 1 4 7 7 7 6 6 6 6 5 5 4 3 3 2 1 1 2 3 4 4 6 6 4 4 4 3 1 0 0 0 1 1 2 2 4 4 3 2 2 1 2 2 3 3 2 4 5
6 6 6 6 6 6 6 5 6 5 5 7 9 9 8 8 8 7 6 5 6 8 7 10 11 9 9 9 9 8 9 8 6 4 3 3 4 0 1 5 8 8 7 7 6 7 7 6 5 4 3 3 2 1 1 1 2 2 2 6 4 3 3 3 1 0 0 1 1 2 3 4 5 5 4 2 1 1 1 1 2 2 3 2 3
5 6 5 5 6 5 6 6 5 5 5 5 4 6 9 8 8 8 7 6 7 7 6 9 10 8 8 9 8 8 8 7 6 6 4 2 1 2 4 4 7 8 8 8 8 7 7 7 6 5 5 4 4 3 2 1 1 2 2 2 5 3 2 2 0 1 1 1 1 2 2 6 7 6 6 6 3 3 2 1 2 2 1 2 3
4 5 6 6 5 6 5 5 5 5 5 5 5 5 6 7 9 9 8 7 7 7 7 7 9 9 9 10 9 7 6 5 6 5 5 4 3 2 3 2 5 8 8 9 8 8 8 8 7 6 6 5 5 4 3 2 2 2 3 4 4 4 1 0 1 1 2 2 1 2 4 7 8 7 6 7 5 4 3 3 3 2 2 3 3
4 5 6 6 5 6 6 5 5 5 6 6 5 5 5 7 7 9 9 8 8 7 7 8 8 8 7 9 10 7 4 4 3 3 4 2 4 3 3 2 4 5 7 9 9 8 9 9 8 7 7 7 4 4 3 4 4 4 4 4 3 1 1 1 1 1 1 2 3 3 6 7 8 7 5 6 6 5 5 5 4 4 3 3 4
6 6 5 5 6 6 7 6 5 4 5 6 5 5 5 5 4 4 5 6 6 7 5 4 6 5 8 7 5 5 5 4 4 4 3 2 3 5 4 4 4 5 6 8 9 7 9 10 9 9 9 7 5 1 3 4 6 5 4 4 3 1 0 0 1 1 2 3 3 5 7 7 9 8 6 6 5 5 5 5 5 5 5 5 4
8 6 6 7 6 5 5 6 6 6 5 4 5 6 6 5 4 4 4 5 5 5 5 5 4 4 5 5 5 4 6 4 4 5 4 5 4 5 5 6 6 5 5 6 6 6 9 10 9 8 8 7 1 1 2 3 3 5 3 2 3 3 2 1 1 1 3 2 3 6 7 8 9 9 6 6 5 5 6 6 6 6 5 5 5
8 8 7 5 6 7 7 6 7 6 7 6 5 5 5 5 5 5 4 3 3 4 5 5 4 4 5 5 6 6 6 5 5 8 7 4 4 5 5 5 5 5 5 5 5 3 5 7 8 6 5 1 0 0 2 3 3 3 3 2 2 3 3 3 2 2 3 3 4 7 8 10 10 10 8 6 7 5 6 7 7 7 6 6 6
9 7 6 8 9 9 7 7 7 6 7 6 6 6 6 5 5 5 5 5 4 4 4 5 5 4 5 4 4 5 5 6 5 4 5 4 4 4 3 4 3 3 3 2 2 2 2 3 3 2 1 1 2 3 2 4 3 4 4 3 3 3 4 3 3 3 3 3 4 8 9 10 11 12 9 7 7 7 6 7 8 8 7 6 6
6 8 10 9 10 9 9 7 7 7 7 7 7 7 7 6 5 6 6 6 6 5 5 5 5 5 5 5 5 4 5 6 6 6 5 5 5 5 5 4 3 3 1 2 2 2 3 2 2 3 2 2 3 3 3 2 4 4 5 4 5 4 3 4 3 4 4 4 4 8 9 9 11 12 12 10 8 8 9 8 9 9 8 8 8
9 10 8 8 8 9 9 8 8 8 8 7 6 6 6 7 7 6 7 8 7 7 7 6 6 7 6 5 6 5 6 5 6 6 6 6 6 5 5 4 4 4 4 3 3 3 3 3 3 3 3 3 3 3 3 3 3 5 5 5 4 4 4 5 4 4 5 4 5 8 9 11 12 13 14 13 11 9 9 10 10 10 10 10 9
7 9 9 9 9 10 10 9 9 9 8 7 7 7 6 7 7 7 7 8 7 8 8 7 7 7 8 6 5 5 6 6 5 6 7 6 6 5 5 6 5 4 4 3 4 4 4 4 4 4 4 4 5 5 4 4 4 4 6 6 5 5 5 5 5 5 5 5 4 7 8 11 11 12 14 15 14 12 11 11 11 11 12 11 11
11 11 9 9 10 9 9 10 9 9 8 8 9 7 7 7 7 7 7 7 8 9 9 8 8 7 8 8 6 7 6 5 6 6 5 7 7 7 6 6 6 6 5 5 6 6 5 6 5 5 5 5 5 6 5 5 5 5 5 6 6 6 6 5 5 5 5 5 5 6 8 9 11 12 14 16 15 14 13 13 12 12 13 13 13
13 10 10 10 9 10 11 12 12 10 9 8 8 8 8 8 8 8 8 8 8 8 9 8 8 8 8 8 8 8 7 6 6 6 7 7 6 7 7 7 7 6 6 6 6 6 6 5 6 5 6 6 6 7 6 6 6 6 6 7 7 6 6 6 6 6 5 5 5 6 9 10 10 11 13 15 16 16 15 14 13 13 13 13 13
9 12 11 10 9 10 11 11 11 10 8 9 9 9 8 9 9 8 8 8 8 8 8 8 9 9 10 9 9 9 7 8 7 6 7 7 6 6 7 6 7 6 7 6 5 6 6 6 6 6 7 7 8 6 6 7 7 7 6 7 7 6 6 6 5 6 6 6 5 6 7 10 10 10 12 14 16 17 16 16 16 14 14 14 14
11 14 11 8 8 11 11 11 11 10 10 10 9 9 10 9 8 8 9 8 8 8 8 8 9 9 9 10 10 9 8 8 9 8 7 7 8 8 7 7 8 7 7 7 6 6 6 6 6 6 5 5 6 6 6 6 7 7 6 7 6 6 6 6 6 6 6 6 6 6 6 7 10 12 12 13 15 16 16 17 17 17 16 15 15
10 10 8 8 12 11 11 11 11 10 12 12 11 9 9 8 8 9 7 7 8 8 9 9 8 9 9 10 11 11 10 9 9 9 8 7 7 8 8 8 8 7 7 8 9 8 7 6 6 5 6 5 6 6 5 6 7 7 6 7 5 7 6 6 6 6 6 6 7 6 6 6 6 9 13 13 14 15 16 17 18 18 18 17 17
9 7 7 11 9 7 8 8 10 12 13 11 10 9 9 8 7 7 7 7 8 8 9 8 9 9 9 10 10 12 10 9 9 9 8 8 9 9 9 8 7 7 6 7 8 7 8 8 8 7 7 7 8 7 6 7 7 6 6 6 5 7 6 6 7 7 6 7 7 6 7 6 6 6 7 12 14 13 16 16 17 18 19 19 19
8 7 12 13 9 10 8 8 10 13 12 13 12 11 8 8 8 8 8 9 8 9 9 8 8 9 8 9 10 10 11 10 10 9 9 9 9 10 10 9 7 7 7 7 7 7 8 9 7 8 9 7 8 7 7 8 7 8 7 6 7 6 6 7 7 7 7 7 7 7 7 7 7 7 7 7 9 14 15 16 17 18 19 19 19
12 13 11 7 11 10 10 10 10 13 14 13 12 11 10 9 9 9 8 9 9 9 9 9 9 8 9 9 11 11 11 11 11 10 10 10 10 10 10 8 9 7 7 7 7 8 8 8 8 8 9 9 7 8 6 8 7 8 6 6 7 6 7 7 7 8 8 7 7 8 7 7 7 8 8 7 7 9 14 14 16 18 18 19 20
13 12 12 10 10 11 11 13 13 14 13 12 11 10 10 10 10 9 10 9 10 10 9 9 8 9 9 10 11 11 11 11 12 11 11 11 11 11 9 9 8 7 6 7 7 7 7 7 6 7 8 8 8 9 8 7 8 8 6 7 7 7 7 8 8 8 7 8 8 8 8 9 8 9 8 8 8 8 11 15 15 16 17 17 19
12 12 12 12 13 10 11 13 12 11 10 11 11 10 9 9 8 8 9 10 11 10 9 9 10 10 10 11 11 11 11 11 11 11 11 11 11 10 9 9 8 8 8 7 8 6 8 9 10 8 8 8 8 8 8 6 6 7 7 8 8 7 8 9 9 8 8 9 9 10 10 9 9 9 8 9 9 8 8 11 15 16 16 16 16
10 12 11 10 9 8 9 11 11 10 10 9 8 9 9 8 7 8 9 10 9 10 10 10 10 9 11 11 11 10 10 11 11 11 11 10 10 10 10 10 9 8 9 8 8 9 9 9 11 9 7 9 9 9 8 6 6 7 8 9 8 10 9 8 8 8 8 10 11 11 8 10 9 9 9 9 9 8 9 8 7 7 10 16 16
9 9 10 9 10 10 9 9 10 11 9 7 7 8 8 9 10 8 9 11 11 10 10 11 9 11 11 10 10 10 10 11 11 11 11 11 10 10 10 9 9 9 10 10 11 10 11 10 10 9 8 6 7 7 5 5 6 8 9 8 9 11 11 9 10 11 10 11 11 9 10 9 9 10 10 10 9 9 9 9 8 8 8 11 17
9 10 10 12 13 14 11 13 11 10 10 9 9 10 11 10 9 12 14 12 11 10 10 11 11 11 11 10 10 10 11 11 11 11 12 11 11 9 9 10 10 10 11 12 11 10 9 9 8 7 10 10 8 6 6 3 6 9 7 10 11 10 12 12 14 13 13 12 10 10 10 9 10 10 10 8 8 9 9 9 9 8 8 7 10
12 11 13 15 13 13 13 14 9 10 12 13 12 12 12 12 12 13 12 11 10 11 13 11 12 10 10 10 11 11 11 11 11 11 11 12 11 10 10 10 9 10 10 10 10 10 9 9 7 7 7 10 10 6 6 5 6 7 7 9 9 8 12 13 13 12 13 11 10 10 10 10 10 9 8 7 8 8 9 9 9 9 8 8 9
12 10 14 12 10 11 13 11 10 11 12 13 12 13 12 12 12 11 11 9 8 9 9 9 9 10 10 11 11 11 12 13 12 11 12 12 12 11 11 9 10 9 9 11 11 11 10 11 10 10 7 6 7 4 8 10 8 2 1 4 9 8 4 3 5 9 10 10 9 10 10 10 12 9 8 7 8 8 9 8 9 9 9 9 9
8 8 10 13 11 11 12 12 12 12 12 13 14 15 11 9 10 9 5 8 6 4 6 8 9 9 12 12 12 13 14 12 11 12 11 11 12 13 10 10 11 9 10 10 11 12 11 10 10 10 9 9 7 7 8 9 8 5 4 6 3 1 11 2 4 6 8 10 8 10 7 9 9 8 5 9 9 8 8 7 10 10 10 10 9
10 11 11 11 9 13 13 12 11 12 12 12 14 11 7 6 8 4 2 2 3 4 6 9 10 11 11 11 16 14 12 13 13 13 12 13 12 12 12 11 10 10 9 11 11 12 11 10 11 10 11 12 10 7 6 9 10 10 8 1 2 2 7 5 5 7 0 2 6 8 8 9 9 8 7 8 7 7 8 8 9 9 10 10 10
10 12 11 9 7 9 9 9 10 10 12 12 12 9 10 10 8 8 9 10 11 10 13 16 13 13 15 13 9 11 13 12 12 13 13 12 13 13 12 12 11 10 10 11 11 10 12 11 12 11 12 12 11 8 9 6 10 11 14 13 8 7 3 3 4 8 2 6 4 3 5 7 6 6 6 7 7 8 7 9 8 9 9 9 9
12 10 7 7 9 11 11 10 10 10 11 10 10 9 10 10 13 14 14 14 14 14 14 11 10 11 10 9 10 9 11 13 12 12 13 13 13 13 13 12 12 11 10 10 12 13 11 10 9 10 12 9 9 12 13 8 3 10 12 14 13 10 3 2 7 2 13 2 2 3 6 5 6 5 7 8 8 7 7 7 8 9 9 8 9
10 6 7 7 10 12 11 10 9 10 9 9 9 11 12 12 12 13 13 13 15 18 14 12 9 7 8 10 9 10 10 12 13 13 14 14 13 13 13 12 12 12 11 12 14 12 9 9 10 11 10 10 11 13 13 9 11 9 8 11 12 12 10 8 6 8 6 11 15 2 3 4 4 7 8 7 8 8 8 7 9 8 8 8 8
8 9 10 9 7 7 7 6 8 9 9 9 10 11 12 13 13 12 13 13 14 14 11 6 7 8 9 8 9 10 10 11 13 14 14 14 14 14 13 12 12 13 12 12 13 11 12 12 11 11 12 11 11 12 10 11 10 12 6 9 9 10 8 9 8 6 9 7 14 17 12 1 3 7 5 6 6 6 8 9 8 8 7 8 8
9 8 7 5 5 5 7 8 10 9 10 10 11 12 14 13 12 13 16 16 13 13 10 9 7 6 9 10 10 9 11 11 12 14 13 14 14 13 12 14 14 14 12 14 13 12 13 13 14 12 12 12 11 11 14 11 9 9 9 6 7 8 8 8 9 9 9 11 13 12 14 6 10 5 4 5 7 8 8 8 8 7 8 7 7
8 6 6 4 5 7 8 9 12 10 10 11 12 14 13 13 14 15 17 18 17 14 11 11 10 8 10 11 11 11 9 11 10 10 13 13 13 13 14 14 14 13 12 13 14 14 14 13 12 12 13 15 12 12 12 12 10 10 11 10 11 11 11 11 11 10 10 9 8 13 16 12 8 15 4 7 7 9 8 7 8 8 8 8 8
Wind_Direction
185 157 162 174 163 165 161 156 144 146 141 132 126 122 121 117 116 123 121 120 114 109 110 111 112 109 103 103 105 106 108 110 105 99 97 97 102 107 104 100 101 96 89 86 84 83 84 88 88 88 85 80 75 72 69 68 68 70 74 74 77 77 65 61 67 70 63 75 82 78 69 72 75 76 76 74 72 71 59 55 58 56 53 58 62
162 155 162 167 164 167 160 160 147 148 144 135 133 132 130 125 120 120 123 123 124 118 117 116 114 108 107 106 105 110 114 114 113 112 113 111 105 96 97 95 90 90 92 94 98 96 96 95 94 92 88 82 78 72 70 69 69 74 77 79 81 78 66 66 65 65 67 64 59 53 62 65 73 76 75 73 71 68 69 63 64 69 74 63 62
141 148 158 161 165 166 161 160 151 148 146 142 140 139 134 132 130 127 128 130 125 123 120 113 111 111 111 112 118 127 122 119 116 113 112 106 98 101 104 104 102 103 106 105 95 95 96 98 97 89 83 81 76 70 67 66 68 75 83 83 81 76 67 68 64 63 62 57 50 48 46 50 53 78 78 76 69 56 47 61 59 54 57 66 72
143 154 154 160 164 161 161 161 155 147 147 147 144 139 137 137 137 139 142 139 137 129 124 119 114 117 118 119 119 120 122 125 120 124 119 113 117 116 107 96 94 95 95 95 96 97 102 102 96 93 85 78 72 67 65 68 72 76 81 85 83 73 70 69 65 63 60 57 51 47 37 29 37 61 79 76 71 64 51 58 55 58 60 68 77
145 151 157 157 160 160 163 160 156 148 148 150 145 141 142 143 142 145 150 156 139 135 130 127 122 123 125 124 123 128 137 120 122 120 111 111 106 98 102 105 106 104 101 99 100 101 102 105 104 95 88 81 72 67 65 71 79 84 84 86 82 75 74 71 69 62 55 49 45 44 27 25 22 47 79 77 67 60 73 69 64 63 66 69 76
147 151 154 154 153 162 160 160 156 151 151 149 145 144 146 146 145 148 155 166 155 141 140 135 129 127 129 138 131 133 132 124 127 128 129 130 121 115 111 111 106 106 110 110 108 110 112 112 109 98 89 78 72 66 67 78 90 100 97 91 88 80 77 75 71 64 57 47 40 36 29 27 27 25 75 78 80 70 84 74 72 71 70 74 76
144 150 154 153 154 158 157 162 160 153 152 148 148 148 150 148 149 153 160 166 172 158 151 147 133 134 141 145 138 146 139 133 137 132 124 110 112 118 113 106 111 111 114 112 111 114 112 114 109 104 92 84 71 66 70 79 87 103 113 102 90 87 79 72 67 62 59 49 39 31 28 28 20 342 74 79 81 77 76 76 70 72 70 71 71
144 150 152 155 158 161 158 164 162 159 153 147 150 152 152 153 156 157 165 175 164 156 154 151 141 140 146 142 154 153 141 138 140 131 130 132 126 114 119 129 126 121 114 114 117 120 122 120 119 109 96 85 77 76 77 80 87 95 106 104 94 89 83 72 67 63 60 53 41 35 29 22 14 339 59 73 78 78 73 78 75 70 69 73 66
151 152 149 151 163 163 162 165 162 162 155 149 149 153 156 159 162 165 170 176 166 164 162 159 150 147 146 154 162 147 144 147 143 143 136 127 131 132 130 121 115 117 117 120 121 122 126 127 122 114 102 90 79 81 81 84 90 98 101 100 96 92 87 77 66 60 47 45 38 30 29 23 12 10 66 76 76 73 71 59 62 69 75 71 72
153 149 149 153 164 169 165 161 164 163 158 155 150 157 164 164 167 171 176 178 179 171 170 165 152 153 151 154 161 160 160 155 150 140 135 144 137 134 134 135 134 129 129 127 125 127 130 130 131 122 111 91 84 82 81 85 88 94 94 93 95 93 87 85 76 64 56 39 41 30 22 39 21 19 61 80 79 74 69 70 75 78 85 84 81
150 150 143 146 162 174 167 166 167 168 163 159 154 165 170 167 171 175 177 185 182 178 163 166 155 158 156 156 164 176 173 157 142 151 150 150 145 145 140 136 134 129 129 125 128 129 133 136 136 133 121 95 81 77 77 76 75 76 84 90 92 91 86 76 69 58 49 45 41 24 8 21 10 6 41 81 79 79 65 75 80 81 84 90 90
153 147 140 141 172 173 174 172 172 173 166 160 163 169 172 170 176 175 181 191 182 165 171 164 161 159 161 158 159 177 164 157 158 165 153 147 144 152 145 145 138 139 142 145 131 129 134 142 142 137 128 103 82 73 73 75 73 74 79 86 89 87 83 80 76 67 51 41 35 22 12 10 353 34 51 57 87 80 85 77 80 80 81 79 88
152 147 142 150 176 178 174 176 178 171 168 162 171 176 175 174 178 182 184 177 185 170 177 172 165 162 161 156 164 175 178 183 171 167 160 161 166 166 156 157 160 153 144 135 136 139 138 136 143 141 129 97 84 76 72 78 77 76 78 87 89 88 83 80 68 70 56 42 33 16 19 359 345 43 55 54 76 94 83 88 80 75 79 85 91
149 151 150 160 171 181 174 175 175 171 167 162 169 177 178 179 182 183 188 165 183 177 184 167 170 164 163 161 163 177 193 189 179 171 187 170 175 169 165 160 161 153 150 155 157 150 142 144 139 132 110 100 88 77 74 76 81 81 80 86 93 92 87 86 82 67 66 44 21 14 21 354 296 67 60 65 68 77 86 83 88 96 90 88 89
155 153 156 159 168 174 181 177 174 178 161 163 173 174 180 183 186 187 195 175 185 184 187 171 175 168 166 166 169 170 186 194 190 197 198 174 181 184 171 172 180 170 171 165 156 161 162 148 148 138 122 113 94 78 74 73 77 85 82 80 87 90 93 83 76 68 50 26 352 1 357 340 359 45 52 60 69 76 82 84 79 74 76 89 100
163 154 156 163 167 169 178 182 181 181 164 168 169 169 182 185 184 196 189 183 188 196 180 184 183 171 171 168 173 174 176 190 204 205 239 234 203 190 181 182 188 189 182 174 174 176 172 168 167 149 131 127 108 88 73 71 68 76 90 78 75 88 91 93 87 82 83 30 332 324 335 331 354 12 35 43 44 66 90 88 89 87 95 106 110
157 162 162 171 170 175 175 176 178 176 167 166 164 165 179 186 186 191 177 187 191 198 188 189 194 177 177 173 175 178 178 184 197 183 192 264 262 156 174 192 195 196 196 189 184 183 187 186 185 169 174 167 146 115 78 60 54 58 88 102 80 77 90 96 109 104 359 327 324 321 309 309 314 338 345 23 43 55 81 96 110 123 120 110 115
159 164 176 173 177 180 176 178 172 168 169 168 167 169 179 187 189 172 166 159 171 197 202 182 189 192 179 174 173 177 181 188 181 150 183 242 287 241 211 227 208 198 203 205 202 200 194 198 190 194 199 205 201 199 145 50 29 30 51 109 115 106 92 101 133 205 247 281 301 295 309 296 308 309 291 249 180 151 113 138 117 118 132 164 145
164 174 172 172 187 184 186 180 175 165 165 167 171 178 180 186 180 172 173 162 176 189 189 185 189 177 186 171 174 178 182 186 182 165 170 219 276 199 213 279 236 213 215 211 213 214 210 209 200 204 215 220 228 233 234 265 351 342 345 38 117 123 100 75 323 270 248 256 265 294 278 292 289 298 278 252 224 229 203 184 181 124 150 165 183
175 179 181 190 181 185 189 189 182 172 164 168 175 175 188 188 183 174 177 168 177 192 166 184 184 184 186 173 170 172 175 181 185 179 177 175 190 208 225 269 282 229 225 224 224 218 222 220 212 217 224 227 236 247 260 267 299 327 345 15 75 105 104 37 273 296 255 255 245 257 270 280 287 312 284 252 221 218 222 234 213 200 190 217 214
193 200 189 190 191 190 192 188 193 180 170 167 170 178 187 189 191 178 180 177 178 188 171 175 181 183 189 179 169 165 163 166 183 193 193 181 186 217 235 258 272 284 233 231 233 227 231 227 222 229 231 237 242 260 327 341 340 355 11 359 25 94 142 174 277 307 300 271 270 256 263 277 285 300 298 258 234 228 226 223 225 212 227 229 231
189 199 209 198 194 199 193 192 186 189 179 172 171 176 180 183 187 192 181 183 183 183 177 180 178 187 183 181 175 167 161 169 180 196 197 207 211 220 234 241 258 267 271 228 235 235 240 238 233 233 239 243 241 360 345 335 332 338 353 350 343 355 170 184 205 271 292 289 271 268 272 277 281 294 295 268 238 245 240 235 231 232 230 234 236
204 202 205 202 204 202 197 191 192 186 181 182 179 179 177 172 181 189 189 186 188 182 183 189 191 184 186 181 177 180 162 175 180 189 198 213 218 224 232 242 245 256 266 239 227 243 243 243 243 239 241 247 294 18 349 311 310 311 331 344 324 311 312 263 240 242 269 268 277 271 271 273 277 281 293 272 262 256 249 242 239 238 243 241 247
198 201 200 203 200 204 204 200 193 184 179 185 182 184 182 175 176 178 183 188 188 193 190 190 197 187 192 193 185 180 172 173 191 196 198 213 227 238 243 255 269 276 265 260 252 281 315 264 231 232 251 27 87 91 272 289 282 291 300 301 298 291 298 297 304 286 271 275 267 269 268 268 268 271 276 265 257 261 263 250 241 237 235 241 243
195 186 195 203 203 203 199 203 196 189 185 184 182 186 186 182 181 176 177 181 190 194 198 193 200 202 194 194 203 175 185 171 184 203 195 203 224 237 244 246 248 270 300 300 306 285 310 312 305 298 102 155 181 228 230 269 276 286 294 293 286 286 288 285 273 265 258 256 262 264 265 262 262 267 265 264 255 250 244 247 247 243 238 239 244
189 198 205 202 203 204 200 199 193 192 192 187 188 190 181 184 185 185 184 183 187 186 185 191 203 212 210 200 192 198 200 183 183 200 198 191 217 224 226 221 231 240 215 238 250 254 254 268 250 230 180 206 223 232 227 221 285 284 287 284 279 284 277 277 272 263 257 251 259 259 258 255 255 258 266 266 259 249 246 247 251 246 243 234 232
199 212 203 209 205 206 203 196 198 194 197 192 190 186 189 192 188 186 181 189 188 187 198 188 207 207 220 210 198 201 206 196 186 195 207 186 208 215 219 210 215 208 199 185 215 230 240 243 231 225 208 208 213 209 237 239 238 281 278 274 268 266 269 269 268 263 261 250 257 258 256 256 251 249 255 259 261 259 248 244 247 248 243 237 233
210 212 207 205 203 207 204 198 200 195 196 193 193 194 193 192 194 189 196 192 188 189 192 194 207 208 211 220 212 206 202 201 197 198 211 190 204 209 213 213 204 213 215 199 201 208 234 230 228 232 235 212 226 229 228 233 239 253 274 270 266 262 259 256 256 260 263 260 254 259 250 253 253 250 249 253 257 260 259 248 247 244 247 243 228
219 215 208 208 208 203 201 206 204 201 197 189 199 197 196 197 193 193 197 190 200 198 197 196 199 206 210 215 215 221 213 204 207 209 208 216 196 200 209 220 208 202 208 210 215 225 229 233 221 223 216 227 224 231 238 240 239 249 253 267 263 262 259 253 250 254 254 254 255 255 251 248 248 250 249 250 253 256 257 256 252 249 246 244 245
220 213 210 213 206 198 202 206 203 201 198 194 202 197 195 198 200 198 197 193 202 199 199 203 202 200 204 212 211 219 222 221 217 208 209 220 213 201 206 214 219 203 197 221 213 216 226 230 236 227 238 239 238 240 234 235 236 243 245 252 258 257 256 257 257 252 251 250 250 251 254 252 250 246 246 248 249 251 255 256 257 253 251 251 248
217 222 217 215 204 199 209 207 205 201 197 202 202 206 197 204 200 197 197 200 194 195 203 208 208 206 204 205 211 213 217 218 225 220 214 215 216 216 214 205 218 214 199 208 210 218 220 225 223 229 231 234 240 245 239 245 247 246 241 242 250 255 258 256 258 259 259 253 246 247 254 255 250 248 246 244 245 247 249 254 255 255 253 250 248
214 222 219 211 208 209 210 206 206 202 201 207 204 207 206 206 202 200 204 199 189 199 203 207 211 212 208 209 208 210 210 218 217 220 224 219 219 217 217 208 216 214 208 202 206 215 225 228 226 229 239 238 243 239 237 240 244 242 237 240 243 247 252 253 254 255 256 258 255 249 248 251 249 249 247 245 243 242 244 247 251 255 255 254 253
224 224 214 207 214 209 210 208 203 205 207 208 207 208 208 205 202 206 205 198 199 200 205 207 209 211 212 214 213 212 211 214 216 219 219 224 222 220 221 220 220 214 208 208 209 213 220 229 237 224 232 231 235 239 231 234 242 244 235 238 231 241 241 246 249 252 252 253 252 251 251 246 247 248 247 245 243 241 240 242 246 250 252 253 253
223 213 200 217 208 208 207 207 203 206 209 211 211 209 208 206 205 205 202 200 204 207 213 209 208 210 211 214 214 214 213 214 216 219 220 226 231 234 231 226 218 214 210 204 211 210 224 225 229 230 232 229 226 238 233 243 244 243 240 239 229 237 236 239 241 243 245 247 246 247 247 248 246 243 245 245 242 239 240 241 244 245 248 250 252
223 214 213 218 201 207 199 209 203 208 207 211 210 212 203 205 203 204 202 202 204 209 213 212 212 210 205 214 215 216 216 217 214 217 220 225 231 234 234 234 225 218 215 210 212 216 218 225 225 229 232 224 237 239 233 243 246 243 241 234 240 238 236 241 243 245 242 246 242 243 239 241 243 242 239 238 244 241 238 240 242 244 245 244 245
217 221 221 207 211 209 202 211 204 210 211 211 211 210 205 204 204 204 205 202 208 212 212 212 212 209 210 214 210 212 212 214 215 214 223 222 227 232 232 231 226 222 221 212 210 220 224 229 222 220 232 229 232 240 229 244 244 250 245 240 244 239 242 245 246 246 245 246 245 246 238 236 234 237 236 235 237 237 235 234 237 241 242 244 243
218 218 216 209 215 208 205 211 212 211 213 213 212 212 210 208 206 204 206 203 210 215 215 213 211 212 211 215 213 212 211 211 211 211 219 224 226 229 231 227 222 224 216 213 212 214 218 224 229 217 222 238 229 239 235 233 246 250 248 244 244 240 241 242 244 244 247 245 247 245 245 240 235 234 236 237 236 238 237 232 235 235 240 242 242
224 221 217 211 214 207 206 212 216 212 211 212 211 212 214 214 212 211 208 212 215 217 216 211 216 214 212 217 213 211 212 213 211 211 218 224 226 229 229 223 219 222 223 213 219 212 220 224 236 221 216 230 240 239 244 234 237 246 248 244 248 242 244 244 244 243 240 248 243 243 241 241 236 233 231 233 235 238 236 236 233 236 237 239 241
226 224 222 219 217 211 209 215 215 211 212 209 207 212 215 219 218 215 217 220 222 221 216 217 217 215 217 216 212 212 213 213 212 211 216 219 224 227 227 219 216 222 225 225 225 221 221 220 227 230 211 222 233 239 243 240 242 244 249 250 247 246 248 242 246 245 242 243 246 247 243 238 234 235 233 229 233 232 234 235 232 229 234 235 238
226 224 223 218 218 217 212 216 211 209 207 202 193 205 207 213 215 217 226 223 223 222 218 222 216 219 219 214 213 214 212 212 212 212 216 217 222 224 225 217 216 217 221 224 225 220 222 222 227 227 233 226 226 239 236 244 257 255 257 260 249 252 252 246 245 244 245 244 246 244 243 241 234 235 231 230 230 228 230 231 231 229 228 233 234
229 223 219 219 215 214 208 217 208 199 197 196 198 199 206 211 216 217 223 219 220 220 223 222 221 222 216 213 213 215 214 212 213 212 216 219 223 223 221 221 216 218 222 227 226 227 220 217 222 211 225 238 235 207 225 202 265 271 257 261 266 249 251 245 246 244 241 243 244 243 243 242 238 238 232 230 227 225 225 227 228 227 226 227 234
230 216 221 223 217 215 213 220 198 199 203 202 203 203 207 202 202 214 217 218 214 212 222 219 221 221 215 213 215 215 213 214 212 211 216 216 219 220 221 220 214 223 227 233 231 228 220 214 204 226 208 226 243 185 189 152 230 250 303 296 279 265 239 238 242 243 242 242 239 240 242 240 242 237 239 231 229 223 224 226 228 228 226 225 228
233 212 225 227 223 218 222 219 203 203 207 207 204 212 209 206 202 216 206 223 224 223 224 223 219 219 216 216 216 214 213 217 210 208 215 217 220 219 222 217 218 217 225 230 229 229 222 219 207 219 223 216 237 187 183 182 241 161 236 352 299 339 336 298 265 256 249 245 235 234 235 237 240 233 232 229 234 227 228 226 230 228 229 226 225
239 230 227 223 222 219 221 213 212 210 211 208 210 218 212 210 216 223 214 215 221 218 229 227 222 216 222 217 218 216 215 216 209 211 215 217 217 220 220 217 220 213 220 228 227 231 223 222 217 219 218 239 212 222 186 191 204 137 276 213 252 104 311 301 310 276 225 236 225 235 229 237 234 235 215 229 231 230 230 223 227 228 229 228 225
231 230 228 223 219 221 221 215 214 214 217 214 213 214 199 202 211 223 214 263 290 223 221 231 217 219 225 215 221 212 213 215 212 212 212 218 217 220 218 220 218 214 215 226 228 229 225 224 218 218 211 224 238 223 202 195 203 198 203 167 278 291 233 277 330 267 42 201 237 224 228 227 231 225 218 232 230 230 229 227 227 226 230 226 227
237 235 228 228 226 231 227 220 219 220 221 219 213 199 205 206 192 198 212 219 229 218 222 223 209 213 218 222 223 209 213 216 212 213 214 215 218 219 219 219 219 217 214 222 229 229 224 219 217 218 225 221 232 233 234 194 207 202 216 226 208 216 249 251 23 293 320 215 217 201 234 231 235 223 227 231 227 231 225 231 224 230 227 227 226
240 238 234 224 220 227 225 218 217 221 222 221 203 194 206 210 208 209 213 213 222 232 230 230 219 221 222 219 217 209 212 213 216 214 216 215 219 218 218 218 220 220 217 219 227 226 223 219 214 213 223 218 213 234 233 214 198 224 217 225 236 246 206 302 257 20 306 326 237 222 234 236 224 226 231 231 228 234 234 228 231 229 228 224 226
242 246 240 227 222 226 225 221 219 223 223 217 201 199 207 210 214 218 220 222 221 234 227 226 220 219 213 217 210 212 208 211 215 215 217 217 217 220 217 217 218 220 215 220 227 226 219 220 210 216 217 212 212 224 235 214 207 231 201 225 231 240 240 240 231 248 271 298 289 249 248 250 225 228 225 226 229 228 237 231 233 230 228 225 223
243 241 238 233 232 235 234 225 223 222 225 214 208 203 209 212 214 218 225 230 233 240 245 219 208 204 218 211 209 212 208 211 212 215 215 216 217 220 216 217 219 220 214 225 227 222 218 218 212 211 213 216 214 224 231 229 213 234 171 225 224 233 231 234 235 187 230 243 270 285 276 277 275 251 231 236 238 234 230 237 234 233 230 230 220
244 240 248 244 236 229 230 223 229 220 221 214 210 211 210 213 216 218 224 231 230 240 240 234 219 205 219 218 215 211 211 210 213 215 215 217 219 217 217 219 221 221 218 223 225 222 220 219 216 212 212 217 215 216 223 229 220 228 209 213 209 226 225 223 217 211 223 215 249 268 281 286 293 257 202 227 237 232 236 235 239 235 234 231 224
251 253 259 241 236 227 228 229 232 224 221 219 210 215 212 210 217 220 223 229 231 232 234 237 226 217 222 223 219 219 211 215 212 213 216 217 219 216 215 219 220 220 220 222 222 221 221 219 217 213 214 215 216 217 223 229 225 225 222 213 224 215 213 216 216 207 203 223 224 254 268 269 242 288 230 222 223 233 228 227 234 234 230 230 228